Home   Weather   Belém   Past weeks

Flag for Brazil Past Weather in Belém, Pará, Brazil — Yesterday and Last 2 Weeks

Now
82 °F

Passing clouds.


Feels Like: 89 °F
Forecast: 75 / 89 °F
Wind: 10 mph from East

Location: Belem Aeroporto

Current Time: Dec 10, 2016 at 10:06:41 am

Latest Report: Dec 10, 2016 at 9:00 am


Visibility: N/A

Pressure: 29.89 "Hg

Humidity: 79%

Dew Point: 75 °F

Location of BelémLocation

Past Weather in Belém — Graph

°F

Belém Temperature Yesterday

Maximum temperature yesterday: 88 °F (at 11:00 am)
Minimum temperature yesterday: 77 °F (at 2:00 am)
Average temperature yesterday: 81 °F

High & Low Weather Summary for the Past Weeks

 TemperatureHumidityPressure
High90 °F (Nov 25, 12:00 pm)94% (Nov 27, 5:00 am)29.92 "Hg (Nov 27, 5:00 am)
Low75 °F (Nov 27, 5:00 am)52% (Nov 25, 12:00 pm)29.74 "Hg (Nov 25, 4:00 pm)
Average81 °F79%29.83 "Hg
* Reported Nov 25 8:00 am — Dec 10 8:00 am, Belém, Weather by CustomWeather, © 2016

Note: Actual official high and low records may vary slightly from our data, if they occured in-between our weather recording intervals... More about our weather records

Advertising

Belém Weather History for the Previous 24 Hours

Scroll right to see more
 ConditionsComfort  
Time TempWeatherWind HumidityBarometerVisibility
8:00 am
Sat, Dec 10
81 °FSunny.3 mph84%29.86 "Hg10 mi
7:00 am77 °FPassing clouds.1 mph94%29.86 "HgN/A
6:00 am77 °FClear.2 mph89%29.80 "Hg10 mi
5:00 am77 °FClear.No wind89%29.80 "Hg10 mi
4:00 am77 °FClear.2 mph89%29.80 "Hg10 mi
3:00 am77 °FClear.6 mph89%29.80 "Hg10 mi
2:00 am77 °FClear.7 mph89%29.80 "Hg10 mi
1:00 am77 °FClear.7 mph94%29.80 "Hg10 mi
12:00 am77 °FPassing clouds.8 mph94%29.83 "HgN/A
11:00 pm
Fri, Dec 9
77 °FPassing clouds.5 mph89%29.83 "HgN/A
10:00 pm79 °FPassing clouds.7 mph84%29.83 "HgN/A
9:00 pm77 °FPassing clouds.7 mph89%29.83 "HgN/A
8:00 pm79 °FPassing clouds.7 mph84%29.80 "HgN/A
7:00 pm79 °FThundershowers. Partly cloudy.8 mph84%N/AN/A
6:00 pm81 °FBroken clouds.9 mph74%29.77 "HgN/A
5:00 pm81 °FBroken clouds.13 mph79%29.77 "HgN/A
4:00 pm84 °FPartly sunny.13 mph74%29.77 "HgN/A
3:00 pm82 °FLight rain. Partly sunny.10 mph79%29.77 "HgN/A
2:00 pm84 °FScattered showers. Scattered clouds.16 mph79%N/AN/A
1:00 pm86 °FPartly sunny.12 mph75%29.83 "HgN/A
12:00 pm86 °FScattered clouds.12 mph75%29.86 "HgN/A
11:00 am88 °FScattered clouds.9 mph62%29.86 "HgN/A
10:00 am86 °FPartly sunny.9 mph70%29.89 "HgN/A
Weather by CustomWeather, © 2016

See weather overviewHow to use our weather pages